Wetbulb
59.81 58.89 58.43 57.44 56.69 56.52 56.72 56.78 56.93 56.64 56.78 56.34 53.97 54.07 54.38 54.79 54.49 52.46 47.84 51.57 53.17 55.08 56.11 53.09 52.07 51.03 50.86 48.34 49.32 49.23 39.59 36.11 37.73 38.78 41.07 46.06 44.94 48.94 50.80 48.98 50.44 53.16 53.71 57.66 61.22
60.45 59.53 58.94 57.97 57.10 56.03 56.19 56.73 56.22 56.89 56.21 55.21 53.56 53.93 54.17 54.32 51.08 47.82 53.00 53.22 55.48 57.39 52.89 49.63 48.11 47.98 46.54 46.41 45.84 43.29 38.21 38.05 42.94 43.58 42.20 44.29 44.59 45.64 46.59 47.54 47.75 49.82 53.81 58.49 59.50
61.08 60.31 59.57 58.62 57.11 56.32 56.05 55.97 55.81 56.24 55.47 54.21 53.26 54.06 53.51 54.08 46.42 46.61 56.21 57.55 57.89 56.87 54.24 52.31 49.67 46.38 43.42 45.54 43.85 42.88 37.43 42.54 43.44 44.64 44.96 43.50 43.66 46.54 45.42 44.15 47.98 48.14 50.61 54.75 57.68
59.99 60.99 59.85 58.19 56.85 55.81 55.88 55.53 55.52 55.58 54.86 53.45 53.02 53.55 53.09 50.72 36.57 50.39 54.68 54.56 55.51 54.27 51.68 48.99 47.01 43.28 40.98 39.94 44.20 38.81 42.44 42.87 43.27 44.40 43.51 42.19 44.85 43.05 44.40 45.46 49.30 51.26 52.91 53.60 55.39
58.00 59.04 60.32 57.85 56.25 55.86 55.36 55.05 55.10 55.28 54.86 53.25 52.72 53.15 50.70 44.37 43.76 53.34 53.29 52.22 51.09 50.06 47.48 46.12 43.68 42.77 38.82 40.73 41.39 39.18 40.53 42.26 43.07 42.75 42.55 43.26 41.64 42.18 43.15 47.04 49.32 50.52 52.23 52.73 53.64
56.89 58.66 59.54 57.26 56.11 55.44 55.10 54.31 54.19 55.06 54.29 53.49 52.67 52.36 47.38 38.48 50.93 52.52 51.38 49.77 49.07 47.96 46.52 46.17 43.61 44.25 40.76 39.81 38.58 40.99 40.70 40.74 41.75 41.72 42.60 40.64 41.10 42.51 43.91 46.92 46.80 48.67 49.96 51.56 53.63
56.30 57.24 58.52 56.00 55.94 55.71 54.65 53.95 53.75 54.48 53.95 53.31 53.21 50.99 45.07 43.13 50.66 51.52 50.50 49.28 49.27 48.34 45.18 47.06 46.38 42.66 42.08 38.17 41.96 40.19 35.83 38.53 39.49 40.13 39.36 41.66 37.13 38.33 44.27 46.07 45.02 46.83 49.05 51.20 53.50
55.69 57.22 57.02 56.04 55.92 54.79 54.25 53.56 54.00 53.87 52.64 52.23 53.01 49.52 41.01 49.14 51.52 49.78 50.54 48.64 49.96 49.82 48.11 48.60 47.81 44.13 41.67 42.75 39.82 35.54 35.71 30.38 37.91 39.16 39.94 39.36 31.50 41.16 45.27 44.81 44.16 45.28 48.82 50.45 52.29
55.19 55.92 56.30 56.48 55.32 54.74 53.62 53.65 53.99 53.49 52.83 52.88 49.41 45.68 39.02 50.13 46.77 49.69 50.52 46.20 47.48 47.73 47.90 48.15 46.15 41.07 40.72 35.60 32.00 33.51 26.87 29.54 32.67 38.70 38.50 38.16 34.70 41.61 45.09 44.85 43.59 44.87 45.99 48.66 50.80
54.87 55.78 55.99 56.40 55.16 53.42 53.35 52.87 52.97 52.23 51.20 50.91 47.68 40.28 43.42 41.83 46.39 47.70 49.74 48.13 44.95 44.51 43.04 42.13 40.38 35.73 35.86 32.97 24.11 26.59 27.37 29.85 29.86 35.52 37.56 35.33 35.57 40.83 44.21 44.80 44.14 44.63 46.41 47.65 49.87
54.56 55.56 55.80 56.47 54.69 53.32 52.18 49.33 43.92 42.18 44.84 39.90 40.30 39.96 42.11 46.21 48.02 45.63 47.71 45.72 44.94 41.70 34.58 38.44 33.71 29.19 32.59 34.69 34.17 32.23 29.90 28.35 32.48 36.51 34.79 33.79 34.73 38.92 43.30 44.92 44.73 45.84 47.72 48.59 50.93
54.63 56.31 56.10 55.08 53.82 53.24 51.62 45.53 45.06 45.30 37.25 43.18 42.69 42.76 44.74 46.12 41.00 43.61 47.03 40.03 39.12 33.30 37.18 33.88 29.05 35.68 36.91 35.61 32.84 31.39 28.61 28.40 33.03 36.21 34.55 34.84 35.07 39.73 42.52 44.06 45.75 46.40 47.27 48.77 50.15
53.70 56.17 54.76 53.68 52.91 51.22 47.86 46.95 48.58 46.64 38.14 37.98 42.54 41.56 42.61 44.53 40.71 41.29 43.50 40.92 36.91 34.37 34.20 30.44 34.10 36.90 34.55 32.55 30.29 30.28 28.48 29.04 29.00 33.71 36.37 34.83 34.12 36.16 41.84 44.47 45.85 47.23 48.57 49.76 49.73
52.41 54.06 53.41 53.19 49.40 49.25 46.52 49.25 49.16 46.42 34.21 34.50 37.95 41.43 43.43 43.44 38.50 44.61 44.57 40.88 36.98 33.34 34.61 33.64 37.05 33.95 32.60 30.61 31.95 27.94 34.30 32.93 31.24 29.80 26.85 36.33 27.50 35.16 39.13 40.51 43.36 45.44 47.01 48.53 49.71
52.79 53.28 53.11 53.30 49.06 46.00 47.45 49.41 47.25 43.28 24.33 36.74 38.11 46.51 43.61 39.47 39.31 40.18 45.11 40.71 34.15 34.85 33.80 32.13 33.14 32.89 31.53 32.80 35.26 31.01 35.10 34.11 34.28 31.37 30.84 32.43 28.35 33.67 39.60 37.03 39.78 43.53 46.81 48.93 50.62
52.76 53.31 52.85 50.75 50.21 48.11 49.25 46.61 44.06 32.72 25.01 32.16 38.47 37.04 36.70 38.34 38.02 40.20 40.09 42.22 41.06 35.15 35.89 34.37 39.38 36.65 35.55 36.97 36.68 37.21 34.63 34.21 32.86 31.85 26.88 32.28 29.51 30.99 34.01 37.52 40.79 44.18 46.66 48.12 49.71
52.39 52.87 51.86 51.11 45.55 48.65 46.68 42.40 32.60 28.51 33.28 31.32 32.74 36.23 34.91 33.62 35.14 36.58 35.94 34.99 31.69 28.04 31.13 34.37 35.07 38.23 37.12 33.77 38.02 35.50 32.48 28.16 25.96 25.14 26.66 33.96 30.45 32.44 36.18 38.65 42.67 43.18 44.55 47.66 49.24
52.81 52.70 49.86 48.33 49.57 47.36 44.66 36.42 27.65 30.84 29.49 36.40 35.95 35.85 31.08 34.72 34.74 35.19 34.71 32.54 35.71 31.96 28.38 28.01 27.87 34.89 38.02 34.97 32.03 31.85 33.02 27.93 21.87 24.55 27.58 35.12 28.83 31.88 39.32 42.43 44.09 43.98 45.26 47.75 47.71
51.05 48.50 46.43 46.15 48.09 47.10 39.61 31.39 31.11 32.54 34.32 34.10 34.52 30.36 31.15 34.03 34.04 33.65 33.36 33.65 35.30 35.05 28.64 28.67 29.63 37.13 37.10 36.82 35.72 33.96 32.55 35.91 29.61 30.82 28.35 30.87 33.57 37.42 40.35 42.34 41.56 41.99 44.64 45.85 46.13
47.44 45.74 44.54 47.64 47.88 44.32 36.32 32.43 31.61 36.14 37.27 37.05 31.14 33.92 29.99 31.29 31.53 31.48 32.46 36.63 35.28 37.68 37.66 32.65 27.43 35.63 36.73 38.24 38.53 36.62 37.85 31.02 33.23 25.14 23.75 28.50 28.70 27.96 35.02 37.97 40.12 40.85 43.92 45.30 46.09
45.75 40.29 44.27 47.13 47.59 39.43 31.99 33.55 34.02 37.52 38.82 35.60 34.11 33.18 33.63 31.87 32.28 29.81 32.30 36.34 38.53 37.35 39.19 34.73 32.29 33.88 37.05 34.15 32.89 34.85 32.87 33.63 33.85 30.52 26.52 25.03 27.05 36.74 37.10 38.62 40.79 41.66 44.51 44.97 45.10
42.99 34.19 44.84 46.05 36.37 37.29 34.71 33.57 36.55 36.27 39.52 37.51 37.47 35.69 34.29 34.58 32.22 31.39 30.49 34.75 39.97 38.83 34.19 37.35 33.99 30.80 32.04 37.91 38.93 37.08 35.25 34.55 31.74 29.16 32.13 30.08 28.07 40.64 41.30 41.18 42.08 42.48 44.37 45.20 45.65
37.86 37.38 44.67 44.66 32.48 33.74 34.41 33.88 35.81 35.43 36.86 35.96 35.32 36.95 37.24 34.47 30.56 34.19 33.93 39.54 40.29 38.61 37.15 38.75 33.56 29.38 31.84 35.60 38.72 35.27 37.49 36.51 35.57 36.58 30.77 27.50 29.61 41.26 41.49 41.46 42.51 42.52 43.73 44.42 45.14
38.96 33.07 37.60 39.95 39.73 36.33 32.95 32.59 32.05 36.79 37.18 36.79 36.33 37.60 35.97 34.27 35.92 33.23 33.03 38.07 40.04 39.80 41.21 40.81 34.23 31.79 27.87 30.64 34.21 33.04 35.97 36.85 35.12 32.15 31.00 31.33 32.29 37.22 39.35 39.77 41.77 42.79 43.78 44.57 44.71
41.20 37.27 38.59 32.00 34.54 35.47 35.69 34.59 32.39 31.36 36.40 37.56 35.36 36.06 34.79 31.72 33.30 33.05 34.18 36.70 39.27 41.44 41.22 39.71 31.68 34.13 35.73 36.42 36.75 35.49 35.60 36.71 34.08 35.88 31.77 33.12 33.48 37.02 39.86 40.79 41.30 42.92 43.48 42.81 43.27
38.72 37.95 39.91 36.27 37.26 35.72 33.88 32.91 32.65 33.17 34.97 33.73 33.78 36.63 36.13 33.50 33.78 32.23 34.93 35.27 34.97 39.82 38.99 40.32 33.68 34.81 32.22 36.44 36.84 33.62 36.17 37.01 36.97 37.25 36.41 36.57 35.27 41.49 42.52 43.15 41.82 41.82 42.02 41.54 42.32
43.72 42.48 41.33 36.02 36.12 34.82 35.04 34.32 34.01 35.75 35.29 36.81 37.39 36.84 34.81 36.20 38.67 39.85 40.41 39.95 38.97 37.68 37.66 37.60 36.01 33.59 29.68 34.37 34.22 30.98 33.76 35.52 37.06 38.59 38.30 33.67 37.72 42.24 40.37 40.66 41.04 42.21 42.68 42.04 43.01
MSLP
1017.01 1016.97 1016.93 1017.01 1016.96 1017.00 1016.91 1016.87 1016.94 1016.74 1016.65 1016.94 1016.82 1016.75 1016.75 1016.64 1016.63 1016.07 1015.17 1015.05 1014.85 1015.31 1015.24 1014.64 1014.69 1014.64 1014.51 1013.92 1013.81 1013.61 1012.61 1010.84 1010.35 1009.80 1008.79 1008.61 1007.66 1007.33 1007.08 1006.70 1006.08 1005.13 1005.01 1005.18 1005.72
1016.57 1016.55 1016.53 1016.63 1016.64 1016.56 1016.80 1016.64 1016.63 1016.68 1016.39 1016.62 1016.77 1016.63 1016.53 1016.54 1016.02 1015.09 1014.73 1015.10 1015.28 1015.18 1014.88 1014.65 1014.54 1014.91 1014.45 1013.88 1013.81 1013.42 1012.03 1010.87 1010.54 1009.82 1009.18 1008.89 1008.42 1007.86 1007.30 1006.56 1006.52 1006.00 1006.04 1006.10 1006.14
1016.07 1015.95 1015.91 1016.28 1016.37 1016.14 1016.44 1016.40 1016.52 1016.49 1016.38 1016.45 1016.49 1016.52 1016.49 1016.43 1015.34 1013.98 1014.85 1014.95 1014.90 1015.02 1014.55 1014.74 1015.07 1015.10 1014.50 1013.85 1013.62 1013.04 1011.96 1011.32 1010.58 1010.14 1009.86 1009.58 1009.20 1008.71 1007.63 1007.01 1007.29 1006.43 1006.41 1006.91 1006.61
1015.77 1015.26 1015.40 1015.73 1015.86 1015.89 1016.15 1016.33 1016.32 1016.22 1016.21 1016.16 1016.41 1016.41 1016.57 1016.11 1014.82 1014.32 1014.76 1014.72 1014.77 1014.51 1014.50 1014.65 1014.74 1014.47 1014.06 1013.37 1013.02 1012.68 1011.97 1011.46 1011.01 1010.66 1010.52 1010.23 1010.05 1009.29 1008.63 1007.85 1007.76 1007.44 1006.88 1006.38 1006.69
1015.63 1015.03 1014.57 1014.97 1015.40 1015.67 1015.70 1016.16 1016.16 1015.98 1015.99 1015.96 1016.20 1016.43 1016.37 1015.59 1014.32 1014.44 1014.80 1014.84 1014.59 1014.67 1014.60 1014.56 1014.35 1014.02 1013.65 1013.06 1012.69 1012.23 1011.93 1011.53 1011.13 1011.03 1010.84 1010.87 1010.22 1009.69 1008.94 1008.49 1007.91 1007.63 1007.15 1006.90 1006.37
1015.47 1014.77 1014.17 1014.68 1015.02 1015.30 1015.38 1015.24 1015.84 1015.85 1015.86 1015.81 1016.01 1016.32 1016.08 1014.88 1014.40 1014.31 1014.42 1014.64 1014.32 1014.45 1014.54 1014.56 1014.27 1014.15 1014.00 1013.51 1013.00 1012.47 1011.84 1011.42 1010.93 1010.73 1010.58 1010.30 1009.85 1009.74 1008.94 1008.31 1007.79 1007.11 1006.91 1006.66 1006.70
1015.18 1014.77 1013.97 1014.10 1014.75 1014.97 1015.06 1015.19 1015.69 1015.59 1016.01 1016.10 1015.89 1015.80 1015.58 1014.40 1014.44 1014.30 1014.53 1014.38 1014.54 1014.44 1014.40 1014.42 1014.60 1014.67 1014.07 1013.57 1012.96 1012.73 1012.16 1011.41 1010.68 1010.34 1010.03 1010.24 1009.30 1008.64 1007.50 1007.92 1007.46 1006.81 1006.41 1006.21 1006.23
1014.95 1014.51 1014.44 1014.38 1014.41 1014.70 1014.90 1014.95 1015.23 1015.33 1015.98 1016.20 1015.83 1015.68 1014.84 1014.58 1014.41 1014.52 1014.14 1014.16 1014.47 1014.62 1014.67 1014.43 1014.68 1014.74 1014.36 1014.01 1013.40 1013.04 1012.53 1011.06 1009.71 1009.41 1008.78 1009.11 1008.09 1006.97 1006.92 1006.86 1006.30 1006.12 1005.67 1005.58 1005.52
1014.64 1014.28 1014.19 1014.18 1014.64 1014.45 1014.66 1014.83 1014.72 1015.35 1015.63 1016.23 1015.91 1015.69 1014.49 1014.70 1014.38 1013.80 1013.83 1013.89 1014.11 1014.34 1014.53 1014.52 1014.79 1014.58 1014.23 1014.04 1013.79 1012.83 1012.11 1010.91 1009.58 1008.63 1007.79 1007.49 1007.35 1006.37 1006.09 1005.39 1005.12 1004.97 1005.01 1005.03 1004.94
1014.29 1013.91 1013.61 1013.69 1014.20 1014.47 1014.66 1014.97 1015.06 1015.19 1015.28 1015.84 1015.81 1016.06 1014.64 1013.92 1013.86 1013.91 1013.98 1014.09 1013.94 1014.12 1014.37 1014.58 1014.44 1014.11 1013.79 1013.89 1013.16 1012.42 1012.01 1010.91 1009.69 1008.74 1008.17 1007.97 1006.90 1006.04 1004.92 1004.32 1003.98 1004.13 1004.15 1004.45 1004.61
1013.75 1013.24 1012.88 1012.82 1013.64 1014.15 1014.64 1015.14 1015.45 1015.41 1014.82 1014.87 1014.53 1014.32 1014.07 1014.00 1014.16 1013.98 1013.81 1013.88 1013.96 1014.08 1013.96 1014.25 1014.24 1013.39 1013.15 1012.73 1012.76 1012.56 1012.15 1011.12 1009.88 1009.04 1008.34 1007.30 1006.60 1005.79 1004.45 1004.05 1003.70 1003.44 1003.66 1003.70 1003.94
1013.10 1011.91 1012.10 1012.81 1013.58 1013.94 1014.21 1013.67 1013.14 1013.36 1014.04 1014.81 1014.51 1014.33 1014.31 1014.20 1013.79 1013.76 1014.03 1013.93 1013.67 1013.80 1013.77 1014.16 1013.44 1012.61 1012.24 1012.27 1012.63 1012.54 1011.93 1010.47 1009.51 1008.79 1008.36 1007.05 1005.37 1004.21 1003.84 1003.89 1003.94 1003.73 1003.63 1003.89 1003.98
1013.13 1011.39 1012.31 1013.32 1013.86 1014.13 1014.10 1013.49 1013.62 1013.49 1013.36 1014.48 1014.05 1013.91 1014.08 1014.37 1013.49 1013.38 1013.91 1013.54 1013.54 1013.35 1013.34 1013.19 1012.07 1012.02 1012.15 1012.29 1012.37 1012.04 1011.74 1010.58 1010.12 1008.98 1008.40 1006.92 1004.48 1003.70 1003.38 1003.45 1003.56 1003.77 1003.54 1003.19 1003.29
1013.44 1013.07 1013.00 1013.46 1014.10 1013.79 1013.63 1013.84 1013.93 1013.81 1013.78 1014.10 1013.93 1013.93 1014.21 1014.01 1013.64 1013.65 1013.78 1013.93 1013.45 1013.28 1013.17 1012.41 1011.67 1011.77 1011.86 1011.72 1012.25 1011.46 1010.81 1010.60 1009.97 1009.40 1007.20 1005.60 1003.77 1003.12 1003.02 1003.32 1003.79 1003.51 1003.24 1003.16 1003.35
1013.19 1013.17 1013.32 1012.91 1013.04 1013.41 1013.56 1013.95 1014.23 1014.45 1013.71 1013.67 1013.83 1014.15 1014.00 1014.00 1013.90 1013.57 1013.78 1013.86 1013.58 1013.12 1013.49 1011.85 1011.62 1011.60 1011.47 1011.17 1011.83 1010.76 1010.63 1010.15 1009.52 1008.26 1007.43 1005.46 1005.25 1003.57 1003.08 1003.80 1003.68 1003.56 1003.11 1002.97 1003.02
1012.83 1012.76 1013.19 1013.52 1013.30 1013.54 1013.81 1014.27 1014.52 1014.15 1013.19 1013.54 1013.68 1013.79 1013.92 1013.72 1013.60 1013.53 1013.64 1014.05 1013.61 1013.41 1012.80 1012.02 1011.77 1011.89 1011.26 1011.01 1011.05 1010.65 1009.81 1008.82 1008.42 1007.70 1006.14 1004.77 1005.52 1004.78 1004.97 1004.32 1003.74 1003.77 1003.54 1003.29 1003.11
1012.76 1012.91 1013.06 1012.73 1012.88 1013.80 1014.06 1014.25 1014.16 1013.13 1013.14 1013.41 1013.48 1013.71 1013.94 1013.60 1013.42 1013.39 1013.14 1013.13 1013.26 1013.31 1012.20 1011.67 1011.25 1011.28 1011.70 1011.37 1010.15 1010.03 1008.64 1006.77 1006.57 1006.76 1005.02 1004.47 1005.07 1005.80 1005.45 1004.57 1004.03 1004.29 1004.23 1004.23 1004.07
1012.25 1012.54 1013.20 1013.39 1013.31 1013.88 1013.88 1014.00 1012.92 1012.07 1012.52 1012.90 1013.06 1013.40 1013.77 1013.61 1013.54 1013.22 1012.94 1012.63 1012.92 1013.43 1013.10 1012.14 1011.23 1011.26 1011.64 1011.46 1010.91 1009.78 1008.17 1006.85 1006.11 1005.12 1004.66 1004.26 1005.45 1006.17 1005.45 1004.41 1004.62 1005.09 1005.30 1004.77 1003.97
1012.76 1012.96 1013.48 1014.06 1013.83 1013.97 1013.73 1012.90 1011.54 1011.61 1011.83 1012.40 1012.96 1013.41 1013.38 1013.55 1013.69 1013.18 1012.98 1012.36 1012.43 1012.97 1013.33 1012.21 1011.05 1010.81 1011.04 1011.13 1010.95 1008.93 1007.49 1007.21 1006.13 1005.31 1004.85 1005.63 1006.22 1005.87 1005.29 1004.63 1005.34 1005.31 1005.20 1004.98 1004.42
1012.85 1013.13 1013.88 1014.25 1014.16 1013.93 1013.42 1012.15 1011.76 1011.61 1011.62 1011.95 1012.05 1012.27 1012.65 1013.19 1013.31 1013.10 1012.51 1012.34 1012.35 1012.69 1012.97 1012.63 1011.48 1010.04 1010.03 1010.37 1010.00 1009.38 1008.45 1006.92 1005.68 1005.08 1004.91 1005.42 1005.99 1006.67 1005.69 1005.54 1005.73 1005.69 1005.72 1005.65 1005.06
1013.11 1013.59 1014.38 1014.50 1014.06 1013.74 1013.15 1012.18 1012.01 1012.04 1011.55 1011.69 1011.40 1011.66 1011.88 1012.53 1012.68 1012.86 1012.59 1012.34 1012.52 1012.49 1012.20 1012.54 1011.68 1010.41 1009.83 1009.85 1009.63 1008.95 1008.01 1006.94 1006.16 1005.45 1005.10 1005.48 1007.17 1007.26 1006.57 1006.83 1006.61 1006.55 1006.27 1005.99 1005.69
1013.30 1014.06 1014.77 1014.87 1014.21 1013.53 1012.75 1012.27 1012.31 1011.97 1011.95 1011.85 1011.88 1011.91 1011.89 1012.20 1012.41 1012.81 1012.87 1012.45 1012.56 1012.59 1011.87 1011.68 1011.50 1010.42 1009.58 1009.10 1009.04 1008.57 1007.66 1007.08 1006.18 1005.82 1005.88 1006.14 1007.82 1007.40 1006.86 1006.99 1007.07 1006.86 1007.00 1007.02 1007.20
1013.57 1014.38 1015.09 1014.98 1013.78 1013.20 1012.77 1012.48 1012.19 1011.92 1011.93 1012.00 1012.02 1012.21 1012.31 1012.21 1012.39 1012.49 1012.96 1012.38 1012.32 1012.26 1011.93 1011.50 1011.01 1010.13 1008.61 1008.60 1008.20 1007.81 1006.94 1006.81 1006.58 1006.02 1006.27 1006.36 1008.18 1007.72 1007.17 1007.09 1007.93 1008.21 1008.10 1007.86 1008.09
1013.53 1014.26 1015.02 1014.93 1013.74 1012.43 1012.19 1012.08 1012.15 1012.26 1012.17 1012.35 1012.35 1012.49 1012.31 1012.13 1012.36 1012.46 1012.91 1012.24 1012.26 1011.99 1011.94 1011.74 1011.18 1010.59 1009.89 1009.60 1009.39 1008.50 1007.24 1006.79 1006.68 1006.65 1007.57 1007.85 1008.21 1008.01 1008.05 1008.40 1008.57 1008.82 1009.01 1009.30 1009.00
1012.79 1012.97 1013.39 1013.63 1013.24 1012.49 1012.04 1011.87 1011.88 1012.14 1012.48 1012.68 1012.56 1012.54 1012.69 1012.29 1012.22 1012.27 1012.74 1012.36 1011.89 1011.64 1011.18 1010.92 1011.03 1010.51 1009.94 1009.61 1008.95 1008.54 1008.26 1007.68 1007.35 1007.64 1007.93 1008.60 1008.54 1009.26 1009.31 1009.35 1009.67 1009.46 1009.87 1010.30 1009.60
1012.26 1012.30 1012.88 1012.54 1012.63 1012.43 1012.16 1011.89 1011.84 1012.26 1012.43 1012.62 1012.64 1012.54 1012.91 1012.55 1012.73 1012.32 1012.40 1012.52 1012.15 1011.42 1011.04 1010.76 1010.76 1010.69 1010.17 1009.65 1009.26 1009.36 1009.06 1008.94 1008.53 1008.57 1008.78 1009.19 1009.57 1010.07 1010.27 1010.38 1010.16 1010.41 1010.73 1010.45 1010.70
1012.42 1012.53 1011.74 1012.53 1012.43 1012.28 1011.62 1011.78 1012.04 1012.47 1012.99 1013.02 1012.66 1012.81 1013.18 1013.17 1012.98 1012.73 1012.50 1012.55 1012.55 1012.00 1011.25 1010.81 1010.44 1010.20 1010.04 1010.00 1009.67 1009.74 1010.43 1009.86 1009.65 1009.62 1009.25 1009.76 1010.39 1010.28 1010.82 1011.26 1011.65 1011.62 1011.56 1011.93 1011.91
Wind_Speed
14 12 11 10 8 9 9 8 9 7 6 3 2 4 5 7 7 10 10 1 3 5 7 4 6 5 5 8 10 9 12 16 21 23 22 19 22 19 21 21 30 24 20 17 8
14 14 13 11 9 7 10 9 8 9 4 1 3 4 4 5 10 9 3 3 7 8 11 9 6 4 7 9 7 13 14 22 20 19 19 20 21 23 22 19 26 26 16 20 8
15 18 13 12 9 7 9 8 8 7 3 3 1 3 3 8 8 2 6 9 10 8 6 7 6 8 11 11 13 13 18 20 20 19 19 18 20 20 22 22 23 22 25 24 24
19 15 14 12 9 8 8 8 8 6 5 3 1 2 3 6 4 7 3 4 5 2 4 7 10 12 11 15 15 20 22 21 21 20 19 20 20 24 24 25 22 25 23 23 23
21 23 17 13 9 7 7 8 8 5 7 4 2 0 4 6 8 10 4 4 4 4 8 9 11 10 16 12 14 18 20 22 22 20 20 20 24 26 27 26 24 24 25 21 15
21 22 14 14 12 10 9 5 6 4 5 5 4 2 6 6 4 5 3 2 3 5 5 6 8 7 12 16 17 16 19 21 21 19 20 22 24 24 25 27 28 25 25 24 21
20 18 6 14 14 11 8 4 4 5 4 4 6 5 5 6 1 3 3 3 3 7 7 5 5 7 7 12 12 14 21 21 22 18 24 23 28 28 33 25 27 28 24 24 21
19 18 10 13 13 9 7 7 6 7 3 3 4 2 5 2 4 5 5 7 7 7 8 7 4 11 14 11 16 17 16 19 22 21 23 22 20 27 25 24 27 29 26 20 22
19 19 14 15 12 12 9 8 10 7 6 6 4 1 3 4 7 3 5 8 4 5 5 6 6 13 13 12 12 14 15 21 23 21 19 16 17 23 23 20 27 25 27 22 18
19 19 15 17 14 8 9 9 11 12 8 3 1 4 4 3 2 1 5 6 8 6 7 8 7 12 11 8 12 15 14 19 20 20 12 20 19 23 21 20 21 24 22 19 19
20 22 20 18 16 13 15 8 7 4 5 5 4 1 3 2 2 6 5 8 9 8 10 7 7 11 18 17 19 16 19 24 23 22 22 22 19 21 22 14 17 17 15 17 13
21 26 7 14 13 15 8 6 2 4 6 11 3 4 2 2 4 5 4 6 9 10 8 7 14 18 14 16 15 18 22 27 26 22 20 22 25 15 17 16 15 13 14 16 14
20 10 18 11 9 8 10 5 2 3 4 6 6 4 2 4 4 4 5 4 10 12 12 14 16 9 13 14 17 19 21 26 24 23 21 24 25 19 17 20 14 11 12 15 16
11 2 14 12 8 5 8 6 4 1 2 7 6 4 4 1 4 2 2 6 4 8 9 13 10 9 11 17 14 20 20 25 24 18 14 13 5 16 17 11 12 15 12 14 16
11 8 13 19 7 6 5 7 4 3 3 8 6 4 3 5 2 7 3 5 10 11 5 7 7 11 15 18 8 12 13 12 13 11 8 12 7 2 14 9 10 9 12 11 12
10 8 15 5 1 4 8 6 2 3 3 5 5 4 4 5 3 2 4 5 7 9 11 18 18 13 13 15 14 15 11 14 8 4 6 8 11 4 2 9 8 5 5 0 3
8 4 10 5 3 8 7 5 3 4 4 6 5 5 3 3 3 3 3 4 3 6 1 8 8 6 2 9 6 6 11 3 6 8 2 1 6 6 7 5 5 9 9 7 3
14 11 4 2 9 8 6 3 5 3 3 3 5 7 2 4 4 3 3 2 5 1 6 5 2 4 2 3 5 9 7 5 6 3 5 9 6 7 9 3 14 10 7 7 12
6 3 3 1 6 4 5 4 4 3 6 9 7 4 4 5 5 3 4 4 2 0 4 6 4 3 3 3 3 8 6 9 7 2 2 3 1 5 16 16 15 11 8 13 14
2 2 3 6 5 6 3 3 2 2 7 10 3 6 6 6 5 1 1 4 3 2 2 4 6 2 2 4 8 5 9 3 1 7 5 5 7 7 14 15 13 14 14 14 15
2 3 3 1 5 5 3 1 2 4 4 5 2 3 2 4 3 2 2 1 4 6 4 4 5 7 4 4 4 5 4 5 4 3 4 3 6 9 13 11 12 12 12 14 14
3 2 3 2 3 3 4 1 1 8 3 3 2 2 4 5 3 2 2 2 5 4 6 3 5 4 5 3 5 7 9 4 4 5 6 6 6 10 15 15 14 15 15 13 12
3 2 3 4 3 5 3 3 0 4 5 2 2 2 2 4 3 4 3 4 3 5 7 9 5 4 5 5 4 5 14 2 4 2 14 6 5 13 17 19 16 10 14 13 13
3 4 2 2 2 3 4 4 3 2 4 1 1 2 4 4 1 5 1 2 4 5 8 5 5 6 6 5 5 7 14 12 4 9 12 13 15 17 17 17 15 13 15 14 14
1 4 5 4 6 4 4 4 7 4 1 3 3 4 1 2 4 4 2 4 1 3 2 3 3 4 7 7 12 12 16 18 13 15 10 15 17 13 13 14 15 15 14 15 17
1 3 2 0 7 9 4 4 6 4 5 4 4 5 4 0 4 3 4 1 3 6 3 3 3 4 6 8 12 15 17 15 14 15 15 16 15 10 12 12 14 14 14 16 16
2 0 4 4 8 9 5 5 7 6 1 4 3 5 3 4 1 5 4 5 3 5 7 5 2 3 4 2 5 5 12 9 13 13 11 10 9 10 12 14 14 14 15 14 13
Wind_Direction
258 259 257 259 268 281 282 282 289 285 284 273 261 303 312 307 268 248 255 3 278 161 237 169 202 196 223 231 240 245 249 244 253 261 273 274 268 260 261 255 265 256 256 263 32
252 252 255 247 259 271 282 285 284 291 302 261 245 309 322 309 279 264 119 174 211 201 210 219 205 206 230 229 206 227 237 248 262 272 276 276 269 266 265 258 244 257 269 258 296
307 248 239 249 249 260 270 282 280 298 187 163 328 330 318 292 277 146 137 212 214 216 218 197 200 219 233 239 225 237 251 270 272 271 275 279 280 277 266 251 267 255 244 249 266
328 293 234 228 223 244 257 269 271 291 196 147 200 7 298 266 306 116 174 74 112 236 214 216 221 223 242 248 238 257 259 268 278 281 284 278 275 270 266 263 259 271 266 252 229
326 330 232 200 201 245 251 267 279 266 191 155 169 174 251 232 256 132 142 134 179 195 225 226 249 246 257 265 262 261 266 270 272 275 270 269 263 260 260 263 255 247 269 280 271
322 326 238 184 192 215 241 225 275 285 185 175 170 187 253 254 68 160 160 178 238 213 205 231 252 288 284 273 271 271 279 287 281 272 277 267 264 261 255 247 258 255 250 259 261
320 331 219 176 201 214 212 214 257 148 187 212 177 222 254 259 199 165 181 234 244 251 252 233 281 260 285 279 263 275 277 274 266 263 257 254 257 252 251 253 241 250 246 252 249
322 317 302 209 198 202 200 194 153 142 176 237 183 198 264 125 249 221 216 241 221 245 258 278 255 273 272 277 284 275 277 272 273 267 258 227 253 254 246 238 244 238 241 248 250
317 315 321 210 210 194 191 157 128 147 160 162 175 226 253 156 221 212 225 237 217 234 246 251 256 255 271 252 275 257 259 275 284 280 257 226 250 261 251 248 232 235 236 242 258
309 310 290 226 194 187 164 152 135 138 132 156 54 224 226 189 157 210 226 245 245 244 234 231 240 251 243 241 258 286 290 289 288 289 305 297 287 267 263 234 232 230 230 234 250
311 302 291 193 176 174 140 136 147 146 176 200 187 333 137 158 221 213 217 222 234 242 263 250 264 249 245 247 246 262 266 273 276 278 275 268 267 256 249 251 243 231 231 238 227
316 303 184 157 165 174 195 224 90 73 143 219 202 239 240 306 246 204 219 229 214 248 233 247 249 259 268 270 276 272 274 270 279 273 264 272 267 245 240 224 227 229 228 224 228
342 111 130 136 178 159 220 219 128 209 102 170 201 204 159 241 271 185 226 242 260 262 254 250 262 284 269 270 271 266 262 270 270 287 278 266 252 246 232 226 218 243 246 232 224
325 242 139 161 146 220 209 172 197 49 149 139 182 147 181 264 236 180 228 278 236 269 281 269 284 275 276 272 270 272 263 254 261 264 259 205 250 206 218 215 241 247 234 234 213
307 310 173 184 104 195 107 166 145 255 266 140 135 93 138 244 28 185 189 240 268 274 252 278 312 293 279 278 278 252 297 271 260 260 261 221 276 149 190 216 245 237 249 235 223
302 298 186 213 168 92 138 136 205 207 210 149 134 183 198 188 173 296 234 221 278 285 263 261 276 284 261 296 273 270 264 254 231 262 250 187 207 72 287 227 224 200 210 6 339
320 170 175 198 170 153 147 143 207 244 117 157 175 191 148 199 225 237 220 241 337 318 312 304 244 260 305 289 281 294 277 243 173 197 102 201 108 47 14 327 89 80 49 16 39
310 200 90 24 127 143 153 225 218 102 167 114 147 165 161 160 267 217 260 309 151 222 299 320 291 324 89 273 308 300 290 328 350 30 87 27 47 24 27 112 93 66 43 25 27
18 96 84 82 139 188 202 239 37 131 147 143 129 151 170 216 260 251 220 330 6 307 321 318 328 286 217 230 260 319 320 335 308 134 81 10 161 267 31 65 54 28 21 40 26
113 77 105 154 159 191 244 300 103 117 115 156 158 201 177 209 217 251 27 60 356 279 158 327 291 330 57 239 226 291 321 322 266 360 63 21 54 2 15 49 61 16 42 34 20
90 132 109 137 197 180 245 13 132 148 130 185 201 187 185 185 203 110 14 130 22 327 302 278 262 355 343 351 314 332 356 318 288 1 344 33 41 356 29 56 54 27 36 35 12
102 104 130 272 147 195 226 204 44 146 131 122 333 14 217 169 143 147 275 307 37 299 310 342 295 315 285 276 276 298 318 327 324 57 16 77 48 30 52 60 62 24 37 26 29
96 92 56 300 170 202 143 148 89 145 157 129 179 274 227 189 113 132 231 300 327 320 341 349 356 294 304 149 23 357 9 35 6 336 29 54 66 47 51 52 64 57 28 20 19
138 117 95 271 272 275 168 167 127 59 122 107 40 215 202 178 22 148 217 317 3 323 322 296 19 4 45 37 341 345 41 52 53 69 85 70 80 51 47 55 53 58 61 49 31
219 128 158 179 210 231 236 158 143 141 215 199 186 239 262 165 153 144 122 299 254 321 267 325 63 47 62 64 50 45 53 59 57 69 68 81 65 56 54 52 53 51 46 55 50
128 132 175 62 171 205 196 191 180 122 168 179 270 162 152 34 6 158 133 139 338 319 9 343 95 91 74 60 63 55 30 54 48 79 95 86 74 77 61 59 48 49 45 41 41
102 27 235 144 168 200 197 154 183 154 165 341 258 153 158 71 37 52 64 92 58 352 348 2 336 302 121 306 288 41 10 27 57 45 42 68 53 61 62 59 48 42 46 42 38